Theta_e
341 341 341 341 343 342 342 339 336 336 335 335 334 333 332 331 337 338 334 345 352 351 352 354 353 353 352 352 351 351 351 352 353 353 351 351 350 351 351 352 351 350 350
339 340 340 342 340 341 341 340 336 335 334 333 332 331 329 328 330 331 331 332 349 347 349 353 355 355 355 355 353 352 352 351 352 352 352 351 350 350 351 351 351 351 350
344 347 344 342 342 343 344 344 341 340 338 336 333 334 339 339 338 337 337 337 334 341 346 349 352 353 354 354 355 352 351 351 351 351 351 350 350 349 350 351 351 351 349
346 343 342 343 344 343 339 337 336 334 336 333 333 333 334 338 337 334 336 337 336 338 342 344 348 349 350 352 353 354 352 350 350 350 350 350 350 349 349 350 350 350 349
347 345 343 341 341 336 333 336 329 330 329 328 330 335 336 335 336 338 335 335 336 336 337 340 343 346 348 350 352 353 352 351 350 349 350 350 350 349 349 349 349 349 349
344 341 337 334 334 330 330 327 324 325 326 326 330 333 334 336 332 330 331 333 335 336 337 338 336 339 346 350 351 352 354 352 351 351 349 348 349 349 348 348 348 348 349
342 336 332 330 329 328 325 324 321 321 323 326 323 326 327 334 328 324 327 330 333 335 337 336 334 337 342 346 347 349 353 354 354 352 349 346 347 348 348 348 348 348 348
340 334 330 326 327 327 324 324 322 319 319 320 316 319 315 318 324 323 327 331 331 334 334 333 332 331 337 344 346 347 350 353 355 353 349 347 347 348 349 348 348 348 348
342 336 331 328 332 329 325 323 322 319 316 315 319 315 311 311 315 319 327 330 330 329 330 330 331 334 335 343 344 345 346 347 352 353 350 348 348 349 349 348 348 348 348
327 331 334 335 336 329 326 325 322 317 314 312 316 324 320 317 313 315 320 323 329 330 330 333 334 338 342 342 344 343 341 341 347 350 350 350 352 351 350 349 348 347 347
322 324 322 325 326 323 321 320 320 320 318 315 314 315 321 323 321 319 316 321 323 326 328 328 328 333 337 339 339 337 337 337 337 339 342 346 350 351 351 350 348 348 348
317 319 319 317 316 315 315 317 319 321 321 319 320 322 323 323 323 323 320 321 322 325 327 326 327 331 333 335 340 338 334 332 331 332 334 338 344 347 348 349 351 351 351
312 312 313 313 313 313 313 313 313 314 315 315 319 321 322 322 323 322 321 321 321 324 325 327 327 328 329 331 335 337 337 332 329 329 329 331 334 338 342 346 348 350 349
311 311 311 312 313 314 313 312 311 311 312 311 311 312 313 315 316 319 318 316 313 317 321 322 324 326 330 329 331 333 334 330 329 327 326 327 328 330 334 338 340 342 343
313 311 310 309 309 308 308 306 305 305 306 305 305 307 307 308 310 310 311 312 311 307 310 318 320 323 322 326 330 330 331 330 329 326 325 324 325 326 327 330 333 334 335
308 307 306 306 306 306 306 304 303 304 303 303 305 304 304 305 305 305 306 308 309 308 305 313 316 321 324 326 328 327 328 328 327 325 326 325 323 323 324 325 326 329 331
306 306 306 305 305 305 305 303 302 303 304 303 303 303 303 304 304 302 302 303 302 303 301 305 311 317 318 320 323 325 327 331 332 325 326 324 321 320 320 321 323 325 327
305 305 306 305 306 306 305 303 303 305 304 304 303 303 303 306 302 301 302 300 300 300 300 299 304 307 313 316 319 321 325 329 334 330 324 322 320 318 318 318 319 320 321
304 304 305 304 305 305 304 304 303 304 304 304 304 303 303 304 304 302 301 300 301 302 301 301 301 304 308 310 311 316 323 327 330 332 323 321 319 318 316 316 316 316 315
304 304 304 305 305 305 305 305 304 302 302 303 303 303 303 303 303 302 302 302 302 300 300 299 300 302 304 307 308 310 313 323 325 331 327 323 319 316 314 315 316 317 313
303 304 304 304 303 304 305 304 305 305 304 303 304 303 303 305 307 306 303 303 303 301 300 298 297 297 298 300 300 305 310 313 322 324 327 323 323 321 319 315 321 320 314
302 302 303 302 302 304 303 303 305 304 305 304 303 304 304 306 306 307 307 308 306 302 300 299 297 296 297 297 300 301 304 308 313 323 323 322 325 324 324 323 317 314 311
300 301 300 304 302 302 301 301 302 304 304 303 304 304 304 306 306 305 305 305 305 304 304 301 299 299 299 299 300 301 303 307 309 319 323 317 325 322 326 324 311 309 310
300 300 302 305 302 304 302 300 300 301 301 301 302 303 303 304 305 305 304 304 303 303 303 303 302 301 301 302 302 303 303 307 311 315 320 316 322 321 326 323 310 308 306
301 301 301 302 301 302 300 297 297 297 297 299 301 302 302 302 301 298 303 303 303 303 304 303 302 300 299 300 302 304 304 306 310 313 319 316 316 317 315 314 314 308 304
302 304 302 301 301 300 297 296 296 294 294 296 297 299 300 299 297 296 299 302 301 302 303 303 304 301 301 302 301 302 305 305 306 312 319 317 316 315 312 311 310 309 307
Wind_Speed
4 4 4 4 5 4 4 4 4 4 5 4 6 7 9 8 7 6 4 12 16 16 17 18 16 16 16 16 16 17 17 16 17 17 17 17 17 17 17 16 16 16 17
4 5 4 6 4 4 3 2 1 3 4 2 5 6 8 5 5 7 6 6 11 15 18 17 16 16 17 16 16 16 16 15 15 17 16 16 16 16 17 16 17 17 18
5 5 2 3 2 3 5 6 6 5 5 5 6 7 6 5 4 4 4 4 5 10 13 17 17 17 18 16 16 17 16 15 15 16 16 16 16 16 17 16 17 18 18
5 4 3 5 6 3 4 3 2 5 3 5 5 1 4 6 7 6 4 2 3 2 5 11 16 19 20 21 19 18 18 16 15 16 16 17 17 17 16 15 16 18 17
7 5 4 2 5 4 3 4 2 3 2 3 4 2 4 7 8 7 11 10 8 4 4 7 10 17 19 21 23 21 20 18 16 17 18 18 18 18 17 16 15 18 17
6 5 1 3 5 5 3 3 4 2 4 5 5 6 7 8 1 5 9 9 6 7 10 7 3 6 16 23 25 24 21 20 18 17 18 18 18 18 18 17 16 18 18
4 1 4 4 4 4 4 5 3 4 4 2 2 3 5 8 5 6 5 9 10 10 10 7 3 4 6 20 27 22 22 21 20 17 17 17 18 18 19 17 16 18 17
4 3 3 3 5 4 5 5 4 2 1 4 3 2 4 4 6 8 5 8 12 7 9 10 9 11 11 7 18 23 20 20 18 17 16 14 17 18 18 18 16 17 17
2 4 4 4 4 3 3 3 3 3 3 2 5 3 1 4 3 2 7 8 12 8 9 9 13 12 12 12 15 14 17 14 13 14 15 14 16 19 18 17 17 17 16
9 8 7 2 3 2 3 3 2 3 2 4 2 4 3 1 2 5 3 5 8 10 10 9 12 12 13 11 15 15 14 14 13 13 14 16 16 18 17 16 15 16 15
8 9 9 8 5 3 2 2 4 5 3 2 3 2 2 3 6 7 10 8 5 9 10 8 8 7 9 9 8 9 14 14 14 13 13 15 16 17 15 16 14 15 15
5 7 7 6 5 4 3 3 4 4 4 4 3 5 6 6 6 5 8 10 12 14 12 9 7 6 7 7 11 15 15 15 15 13 12 14 14 15 12 15 13 15 16
2 3 3 4 2 2 4 4 4 5 5 4 6 6 5 6 6 7 9 9 11 11 11 10 9 10 9 8 9 13 15 17 16 15 13 13 13 13 12 13 12 14 16
4 2 4 4 5 6 5 5 3 4 5 5 6 5 5 5 4 4 5 7 11 10 10 13 6 6 7 7 10 16 12 14 16 15 13 13 12 13 12 13 13 13 14
3 6 6 6 5 4 3 3 3 5 4 4 5 5 4 4 4 4 4 3 6 11 13 9 8 7 5 5 7 8 10 13 16 17 16 13 11 10 10 11 12 11 13
4 5 3 2 3 3 4 4 4 5 6 5 5 6 7 6 5 4 5 7 6 9 12 7 10 8 10 10 10 7 9 16 18 16 14 13 11 11 11 11 11 11 12
3 2 1 3 4 5 6 5 6 7 8 8 8 9 11 8 7 7 5 5 8 9 13 10 10 10 11 11 12 13 12 11 11 16 16 13 12 13 12 11 10 10 12
1 2 3 4 5 6 6 6 7 8 9 10 10 9 11 9 10 8 7 10 9 8 9 15 11 10 12 9 10 14 11 10 9 12 14 14 14 12 12 12 12 14 13
1 3 4 5 6 6 6 7 7 9 8 8 9 9 12 12 12 9 9 10 9 8 9 10 10 10 11 9 12 11 12 11 9 15 15 14 12 10 10 9 10 12 13
4 3 4 6 6 6 6 7 6 6 8 9 10 11 12 13 13 13 11 12 11 10 9 9 9 9 7 7 5 8 12 10 10 9 9 8 7 5 5 9 11 12 12
2 4 5 6 5 5 6 7 9 10 11 12 12 12 13 17 24 20 11 13 12 11 10 10 10 9 8 8 10 8 9 9 13 4 6 4 4 3 3 6 7 12 12
5 5 6 6 6 6 11 14 13 11 12 13 14 14 14 22 21 26 27 28 20 14 14 13 12 12 12 6 9 9 10 9 8 3 5 3 4 5 5 5 9 11 15
6 7 6 7 7 7 13 14 15 10 11 13 14 14 14 13 20 17 21 24 24 25 24 15 14 15 12 9 10 10 9 9 10 11 3 5 6 3 3 4 10 12 14
6 5 7 7 6 8 13 13 12 12 12 14 14 16 15 16 17 17 16 16 15 15 16 12 15 16 14 12 11 11 11 11 10 11 10 9 4 3 2 2 11 13 14
7 5 5 7 8 9 10 14 12 12 13 15 13 15 15 17 21 19 14 17 16 15 14 21 20 18 16 17 14 6 9 8 7 7 6 5 3 3 3 1 1 10 13
7 6 6 6 9 7 12 13 10 10 12 10 15 15 20 18 23 22 14 14 15 16 13 13 10 16 19 17 18 14 10 10 7 6 5 4 3 4 2 1 1 4 4
Wind_Direction
193 180 204 195 196 180 195 202 216 225 221 244 263 263 265 253 246 255 255 260 228 220 228 235 234 236 239 240 244 247 244 241 243 240 232 231 228 226 225 225 231 227 233
177 200 211 205 201 189 195 184 303 307 312 319 306 320 308 309 304 316 313 310 248 224 231 234 239 245 243 239 247 252 254 252 246 255 251 241 236 233 228 223 229 231 234
162 163 197 131 146 132 131 107 94 73 71 91 39 352 357 352 9 19 43 24 352 334 309 306 293 273 261 253 249 254 257 253 250 247 252 252 245 241 240 229 228 231 234
161 156 171 179 156 144 104 91 109 94 104 79 58 23 299 293 291 290 284 271 176 287 308 323 313 294 288 281 264 255 253 251 247 243 239 243 245 245 244 238 235 239 236
174 185 213 46 87 112 149 151 57 84 91 51 61 133 284 267 260 270 287 273 240 185 226 282 312 312 303 298 280 262 254 251 243 239 238 236 236 239 243 244 236 242 240
184 211 166 81 104 98 78 74 109 116 165 173 193 201 213 230 236 273 264 270 258 254 251 243 279 291 306 292 288 271 258 253 250 243 237 234 233 234 236 239 236 241 243
181 144 109 106 88 109 163 164 147 187 233 238 62 265 274 255 238 213 257 277 270 243 254 239 264 265 281 280 282 267 259 257 254 250 246 237 228 228 229 233 231 235 241
129 162 163 160 140 135 158 183 174 205 300 196 211 50 307 327 255 254 235 253 257 259 258 228 219 237 241 248 254 252 251 254 257 253 250 243 237 234 226 229 227 229 240
97 153 168 164 165 154 197 197 231 184 256 264 205 170 55 257 310 263 237 222 240 222 230 232 234 246 261 250 250 253 242 242 248 252 253 243 238 236 235 229 225 220 229
49 45 36 109 130 141 205 230 259 236 230 261 320 210 216 194 294 310 280 257 239 255 237 239 245 251 245 239 233 232 229 236 237 241 252 253 240 240 235 233 227 218 222
50 52 50 51 64 56 354 276 268 243 233 252 194 321 253 213 232 242 275 275 257 238 250 242 236 229 232 231 231 237 234 241 254 252 253 256 250 252 239 225 225 221 217
44 45 51 56 53 50 27 351 334 316 276 260 262 253 256 268 259 245 250 263 262 274 277 260 243 244 266 262 256 253 247 250 249 252 256 244 237 245 229 231 216 222 225
85 73 77 65 38 355 350 350 336 331 323 310 306 300 295 282 292 293 292 282 268 269 271 269 277 280 273 258 257 251 254 251 249 249 245 235 232 240 237 235 230 217 221
131 108 68 47 21 17 12 12 358 339 341 329 309 303 294 292 298 297 290 303 296 287 273 274 270 269 271 264 249 254 259 261 254 240 231 238 233 238 229 225 227 215 205
70 49 50 48 34 23 9 350 316 305 308 288 281 273 275 277 283 283 272 257 272 290 276 282 285 286 290 274 264 258 255 253 250 241 232 235 245 230 208 213 218 214 211
83 83 67 34 326 301 292 289 284 280 281 278 273 272 281 283 267 277 289 291 282 291 290 299 291 297 299 302 302 303 283 275 268 241 230 224 214 222 217 218 218 216 210
127 119 334 311 302 293 285 271 265 264 259 261 266 269 271 262 267 268 262 263 272 276 282 288 289 302 299 299 302 302 298 296 276 229 213 208 209 216 213 199 202 212 211
181 261 284 298 293 286 276 266 265 270 262 266 257 257 265 272 264 255 261 265 260 264 278 287 288 279 278 306 311 309 288 275 272 243 231 198 210 209 211 205 202 195 189
288 332 317 293 278 267 265 261 256 263 260 261 262 263 276 273 268 264 265 267 272 276 276 276 286 297 294 286 287 294 296 283 273 258 226 211 218 223 208 203 214 203 187
45 341 285 271 273 276 279 274 270 271 272 273 268 265 269 265 259 262 260 257 257 258 257 262 265 266 273 289 293 295 288 285 272 256 217 204 206 232 192 197 205 209 200
329 277 277 289 292 291 289 290 292 291 287 283 274 267 261 257 260 256 254 256 256 257 258 260 264 267 262 264 269 281 287 296 282 242 246 203 168 175 206 215 218 209 199
304 308 302 296 297 296 289 291 295 295 288 284 284 276 265 266 263 257 252 249 246 254 259 265 270 266 262 243 259 261 265 269 291 227 205 242 165 202 209 202 197 198 191
314 301 310 306 297 284 287 288 297 304 298 288 282 279 277 270 268 258 249 245 245 244 240 250 257 258 259 244 252 263 264 271 264 289 285 224 187 196 187 202 188 189 190
302 306 304 313 308 304 306 325 319 317 303 285 280 278 280 280 276 263 251 246 242 240 239 233 240 252 249 248 237 245 259 272 278 267 264 243 176 169 126 158 182 180 167
301 298 292 307 309 311 327 335 337 321 300 295 297 293 285 282 277 275 265 243 240 244 237 231 237 239 237 228 228 238 257 263 262 248 226 170 148 110 66 25 189 182 162
291 308 309 310 315 324 331 330 332 324 304 308 306 300 296 282 278 276 270 265 244 243 242 246 236 237 243 245 234 236 242 247 258 294 236 122 132 124 153 42 43 135 145